Date String (YYYY-MM-DD hh:mm:ss) UTC,Instrument flags,Ambient pressure (hPa),Sample flow (lpm),Bypass flow (lpm),Sample temperature (°C),Ambient temperature (°C),ASC tube jacket temperature (°C),LED temperature (°C),Box temperature (°C),Sample RH (%),Span deviation,Mass concentration (μg/m³),Mass concentration (μg/m³),Mass concentration (μg/m³)
DateTimeUTC,F1_M11,P_M11,Q1_M11,Q2_M11,T1_M11,T2_M11,T3_M11,T4_M11,T5_M11,U1_M11,ZSPAN_M11,X2_M11,X0_M11,X1_M11
2022-10-15 14:00:00,,0828.6,4.99,0.00,27.1,25.6,00.0,36.0,29.0,11.7,0000.0,0003.33,0007.29,0002.96
2022-10-15 14:01:00,,0828.8,5.00,0.00,27.1,25.6,00.0,36.0,29.0,11.8,0000.0,0003.34,0007.66,0002.97
2022-10-15 14:02:00,,0829.2,4.99,0.00,27.1,25.6,00.0,36.0,29.0,11.9,0000.0,0003.35,0007.76,0002.97
2022-10-15 14:03:00,,0829.2,5.01,0.00,27.1,25.7,00.0,36.0,29.0,12.2,0000.0,0003.35,0007.73,0002.97
2022-10-15 14:04:00,,0829.2,4.99,0.00,27.1,25.7,00.0,36.0,29.0,12.3,0000.0,0003.35,0007.74,0002.96
2022-10-15 14:05:00,,0829.0,5.01,0.00,27.1,25.7,00.0,36.0,29.0,12.1,0000.0,0003.31,0007.62,0002.94
2022-10-15 14:06:00,,0828.7,4.99,0.00,27.1,25.7,00.0,36.0,29.0,11.9,0000.0,0003.31,0007.81,0002.93
2022-10-15 14:07:00,,0828.7,5.00,0.00,27.1,25.7,00.0,36.0,29.0,11.9,0000.0,0003.33,0008.06,0002.95
2022-10-15 14:08:00,,0828.7,5.00,0.00,27.1,25.7,00.0,36.0,29.0,11.7,0000.0,0003.35,0007.96,0002.96
2022-10-15 14:09:00,,0829.2,5.00,0.00,27.1,25.7,00.0,36.0,29.0,11.9,0000.0,0003.35,0006.75,0002.98
2022-10-15 14:10:00,,0829.3,5.00,0.00,27.2,25.7,00.0,36.0,29.0,12.0,0000.0,0003.35,0006.80,0003.00
2022-10-15 14:11:00,,0829.4,5.00,0.00,27.2,25.8,00.0,36.0,29.1,12.0,0000.0,0003.34,0006.99,0002.98
2022-10-15 14:12:00,,0829.1,4.99,0.00,27.2,25.8,00.0,36.0,29.1,12.2,0000.0,0003.34,0006.98,0002.98
2022-10-15 14:13:00,,0828.9,5.00,0.00,27.2,25.8,00.0,36.0,29.0,12.4,0000.0,0003.35,0007.33,0002.97
2022-10-15 14:14:00,,0828.9,4.99,0.00,27.2,25.8,00.0,36.0,29.1,12.4,0000.0,0003.38,0007.41,0002.98
2022-10-15 14:15:00,,0828.9,5.00,0.00,27.2,25.8,00.0,36.0,29.1,12.4,0000.0,0003.38,0007.47,0002.99
2022-10-15 14:16:00,,0828.9,5.00,0.00,27.2,25.8,00.0,36.0,29.1,12.2,0000.0,0003.38,0007.75,0003.00
2022-10-15 14:17:00,,0828.9,5.00,0.00,27.2,25.9,00.0,36.0,29.1,12.4,0000.0,0003.37,0007.55,0003.00
2022-10-15 14:18:00,,0828.9,5.00,0.00,27.2,25.9,00.0,36.1,29.1,12.5,0000.0,0003.37,0007.22,0002.99
2022-10-15 14:19:00,,0829.0,5.01,0.00,27.2,25.9,00.0,36.1,29.1,12.4,0000.0,0003.36,0007.19,0002.98
2022-10-15 14:20:00,,0829.0,5.00,0.00,27.3,25.9,00.0,36.1,29.1,12.6,0000.0,0003.36,0008.01,0002.97
2022-10-15 14:21:00,,0829.0,5.01,0.00,27.3,25.9,00.0,36.1,29.2,12.7,0000.0,0003.34,0008.25,0002.93
2022-10-15 14:22:00,,0829.0,5.00,0.00,27.3,26.0,00.0,36.1,29.2,12.7,0000.0,0003.34,0008.49,0002.94
2022-10-15 14:23:00,,0829.1,5.00,0.00,27.3,26.0,00.0,36.1,29.2,12.5,0000.0,0003.34,0008.62,0002.93
2022-10-15 14:24:00,,0829.0,4.98,0.00,27.3,26.0,00.0,36.1,29.2,12.5,0000.0,0003.35,0009.05,0002.92
2022-10-15 14:25:00,,0829.1,5.01,0.00,27.3,26.0,00.0,36.1,29.2,12.6,0000.0,0003.33,0009.81,0002.91
2022-10-15 14:26:00,,0829.1,4.99,0.00,27.3,26.0,00.0,36.1,29.2,12.7,0000.0,0003.33,0010.26,0002.91
2022-10-15 14:27:00,,0829.1,5.00,0.00,27.3,26.1,00.0,36.1,29.3,12.8,0000.0,0003.35,0010.10,0002.89
2022-10-15 14:28:00,,0829.2,5.00,0.00,27.3,26.1,00.0,36.1,29.3,12.7,0000.0,0003.38,0010.29,0002.89
2022-10-15 14:29:00,,0829.2,5.00,0.00,27.4,26.1,00.0,36.1,29.3,12.7,0000.0,0003.38,0010.42,0002.89
2022-10-15 14:30:00,,0829.2,5.00,0.00,27.4,26.1,00.0,36.1,29.3,12.8,0000.0,0003.38,0010.44,0002.87
2022-10-15 14:31:00,,0829.2,5.00,0.00,27.4,26.1,00.0,36.2,29.3,13.0,0000.0,0003.37,0009.95,0002.85
2022-10-15 14:32:00,,0829.3,5.00,0.00,27.4,26.1,00.0,36.2,29.3,12.9,0000.0,0003.38,0009.43,0002.84
2022-10-15 14:33:00,,0829.2,5.00,0.00,27.4,26.1,00.0,36.2,29.3,12.9,0000.0,0003.37,0009.03,0002.82
2022-10-15 14:34:00,,0829.2,5.00,0.00,27.4,26.2,00.0,36.2,29.3,13.0,0000.0,0003.35,0008.70,0002.80
2022-10-15 14:35:00,,0829.3,4.99,0.00,27.4,26.2,00.0,36.2,29.4,12.8,0000.0,0003.29,0007.95,0002.77
2022-10-15 14:36:00,,0829.2,5.00,0.00,27.4,26.2,00.0,36.2,29.4,12.8,0000.0,0003.27,0006.60,0002.75
2022-10-15 14:37:00,,0829.3,5.00,0.00,27.5,26.2,00.0,36.2,29.4,12.8,0000.0,0003.25,0006.34,0002.73
2022-10-15 14:38:00,,0829.2,5.01,0.00,27.5,26.2,00.0,36.2,29.4,12.7,0000.0,0003.27,0007.23,0002.71
2022-10-15 14:39:00,,0829.3,5.00,0.00,27.5,26.3,00.0,36.3,29.4,12.8,0000.0,0003.25,0007.06,0002.71
2022-10-15 14:40:00,,0829.2,4.99,0.00,27.5,26.3,00.0,36.3,29.4,12.8,0000.0,0003.21,0006.65,0002.69
2022-10-15 14:41:00,,0829.2,4.99,0.00,27.5,26.3,00.0,36.3,29.4,12.9,0000.0,0003.21,0006.62,0002.69
2022-10-15 14:42:00,,0829.2,5.02,0.00,27.5,26.3,00.0,36.3,29.5,12.9,0000.0,0003.19,0006.45,0002.67
2022-10-15 14:43:00,,0829.2,5.00,0.00,27.5,26.3,00.0,36.3,29.4,12.8,0000.0,0003.16,0006.31,0002.67
2022-10-15 14:44:00,,0829.3,5.00,0.00,27.6,26.3,00.0,36.3,29.4,13.0,0000.0,0003.16,0007.35,0002.66
2022-10-15 14:45:00,,0829.3,4.99,0.00,27.6,26.4,00.0,36.3,29.5,12.8,0000.0,0003.15,0007.44,0002.65
2022-10-15 14:46:00,,0829.4,4.99,0.00,27.6,26.4,00.0,36.4,29.5,12.9,0000.0,0003.19,0007.51,0002.66
2022-10-15 14:47:00,,0829.3,5.01,0.00,27.6,26.4,00.0,36.4,29.5,13.0,0000.0,0003.17,0007.45,0002.67
2022-10-15 14:48:00,,0829.3,5.00,0.00,27.6,26.4,00.0,36.4,29.5,13.1,0000.0,0003.17,0007.29,0002.67
2022-10-15 14:49:00,,0829.5,5.00,0.00,27.6,26.4,00.0,36.4,29.5,13.0,0000.0,0003.15,0005.85,0002.68
2022-10-15 14:50:00,,0829.3,5.00,0.00,27.6,26.4,00.0,36.4,29.5,13.0,0000.0,0003.13,0005.75,0002.68
2022-10-15 14:51:00,,0829.3,5.00,0.00,27.7,26.5,00.0,36.4,29.5,13.1,0000.0,0003.15,0005.92,0002.67
2022-10-15 14:52:00,,0829.3,5.00,0.00,27.7,26.5,00.0,36.4,29.6,13.0,0000.0,0003.13,0005.89,0002.67
2022-10-15 14:53:00,,0829.3,5.00,0.00,27.7,26.5,00.0,36.4,29.6,12.8,0000.0,0003.14,0006.56,0002.67
2022-10-15 14:54:00,,0829.4,4.98,0.00,27.7,26.5,00.0,36.5,29.6,12.8,0000.0,0003.15,0007.21,0002.68
2022-10-15 14:55:00,,0829.4,5.01,0.00,27.7,26.5,00.0,36.5,29.6,12.8,0000.0,0003.16,0006.60,0002.70
2022-10-15 14:56:00,,0829.4,5.00,0.00,27.7,26.5,00.0,36.5,29.6,12.8,0000.0,0003.17,0006.13,0002.71
2022-10-15 14:57:00,,0829.4,5.00,0.00,27.7,26.6,00.0,36.5,29.6,12.4,0000.0,0003.16,0006.07,0002.73
2022-10-15 14:58:00,,0829.4,5.00,0.00,27.8,26.6,00.0,36.5,29.6,12.4,0000.0,0003.17,0006.47,0002.73
2022-10-15 14:59:00,,0829.4,5.00,0.00,27.8,26.6,00.0,36.5,29.7,12.4,0000.0,0003.19,0006.75,0002.75
